DW7653 Weather Reports


time (UTC)temp
C
wind
direction
speed
KPH
gust
KPH
rain 1hr
cm
rain 24hr
cm
rain mn
cm
humidity
%
barometer
mb
20260502194619 13 360 0.0 0.0 0.00 0.00 0.00 60 1011.6
20260502193102 13 360 0.0 0.0 0.00 0.00 0.00 63 1011.8
20260502191559 13 360 0.0 0.0 0.00 0.00 0.00 62 1011.8
20260502190106 13 360 0.0 0.0 0.00 0.00 0.00 62 1011.8
20260502184654 13 360 0.0 0.0 0.00 0.00 0.00 62 1011.9
20260502183053 13 360 0.0 0.0 0.00 0.00 0.00 63 1012.2
20260502181555 13 360 0.0 0.0 0.00 0.00 0.00 63 1012.3
20260502180119 13 360 0.0 0.0 0.00 0.00 0.00 63 1012.3
20260502163047 12 360 0.0 0.0 0.00 0.03 0.00 66 1013.3
20260502161544 12 360 0.0 0.0 0.00 0.03 0.00 66 1013.9
20260502151546 12 360 0.0 0.0 0.00 0.03 0.00 67 1013.5
20260502123026 11 360 0.0 0.0 0.00 0.03 0.00 66 1013.0
20260502121528 11 360 0.0 0.0 0.00 0.03 0.00 66 1012.7
20260502114525 11 360 0.0 0.0 0.00 0.03 0.00 64 1012.8
20260502113024 11 360 0.0 0.0 0.00 0.03 0.00 65 1012.9
20260502111526 11 360 0.0 0.0 0.00 0.03 0.00 64 1012.6
20260502110023 11 360 0.0 0.0 0.00 0.03 0.00 63 1012.9
20260502104536 11 360 0.0 0.0 0.00 0.03 0.00 64 1012.9
20260502103021 11 360 0.0 0.0 0.00 0.03 0.00 63 1012.8
20260502101521 11 360 0.0 0.0 0.00 0.03 0.00 63 1013.0
20260502091515 11 360 0.0 0.0 0.00 0.03 0.00 49 1012.9
20260502071509 10 360 0.0 0.0 0.00 0.03 0.00 52 1011.9
20260502070014 10 360 0.0 0.0 0.00 0.03 0.00 53 1012.2
20260502064520 10 360 0.0 0.0 0.00 0.03 0.00 53 1012.1
20260502063010 10 360 0.0 0.0 0.00 0.03 0.00 54 1012.1
20260502061505 10 360 0.0 0.0 0.00 0.03 0.00 56 1012.1
20260502060008 10 360 0.0 0.0 0.00 0.03 0.00 56 1011.9
20260502054502 11 360 0.0 0.0 0.00 0.03 0.00 56 1012.2
20260502053002 11 360 0.0 0.0 0.00 0.03 0.00 58 1012.4
20260502051604 11 360 0.0 0.0 0.00 0.03 0.00 60 1012.3
20260502050100 11 360 0.0 0.0 0.00 0.03 0.00 59 1012.5
20260502044557 11 360 0.0 0.0 0.00 0.03 0.00 59 1012.7
20260502043105 11 360 0.0 0.0 0.00 0.03 0.00 61 1012.8
20260502041553 11 360 0.0 0.0 0.00 0.03 0.00 62 1012.7
20260502040051 11 360 0.0 0.0 0.00 0.03 0.00 62 1012.8
20260502034551 11 360 0.0 0.0 0.00 0.03 0.03 62 1012.9
20260502033054 11 360 0.0 0.0 0.00 0.03 0.03 63 1012.9
20260502031549 11 360 0.0 0.0 0.00 0.03 0.03 64 1012.9
20260502030048 11 360 0.0 0.0 0.00 0.03 0.03 64 1013.0
20260502024548 11 360 0.0 0.0 0.00 0.03 0.03 66 1012.9
20260502023047 11 360 0.0 0.0 0.00 0.03 0.03 66 1012.9
20260502021546 12 360 0.0 0.0 0.00 0.03 0.03 66 1013.1
20260502020046 12 360 0.0 0.0 0.00 0.03 0.03 66 1013.0
20260502014554 12 360 0.0 0.0 0.00 0.03 0.03 67 1012.9
20260502013054 12 360 0.0 0.0 0.00 0.03 0.03 67 1012.9
20260502011603 12 360 0.0 0.0 0.00 0.03 0.03 66 1012.8
20260502010047 12 360 0.0 0.0 0.00 0.03 0.03 66 1012.6
20260502004557 13 360 0.0 0.0 0.00 0.03 0.03 66 1012.4
20260502003043 13 360 0.0 0.0 0.00 0.03 0.03 65 1012.3
20260502001544 13 360 0.0 0.0 0.00 0.03 0.03 65 1012.1
20260502000051 13 360 0.0 0.0 0.00 0.03 0.03 64 1011.9
20260501234544 13 360 0.0 0.0 0.00 0.03 0.03 64 1012.0
20260501233042 14 360 0.0 0.0 0.00 0.03 0.03 63 1012.1
20260501231550 14 360 0.0 0.0 0.00 0.03 0.03 61 1011.9
20260501230041 14 360 0.0 0.0 0.00 0.03 0.03 60 1011.9
20260501224539 15 360 0.0 0.0 0.00 0.03 0.03 59 1012.0
20260501223038 15 360 0.0 0.0 0.00 0.03 0.03 59 1012.1
20260501221552 15 360 0.0 0.0 0.00 0.03 0.03 56 1012.2
20260501220042 16 360 0.0 0.0 0.00 0.03 0.03 56 1012.1
20260501214536 16 360 0.0 0.0 0.00 0.03 0.03 55 1012.3
20260501213039 16 360 0.0 0.0 0.00 0.03 0.03 52 1012.3
20260501211533 17 360 0.0 0.0 0.00 0.03 0.03 52 1012.5
20260501210032 17 360 0.0 0.0 0.00 0.03 0.03 48 1012.5
20260501204532 17 360 0.0 0.0 0.00 0.03 0.03 44 1012.3
20260501203030 17 360 0.0 0.0 0.00 0.03 0.03 46 1012.3
20260501201529 17 360 0.0 0.0 0.00 0.03 0.03 45 1012.4
20260501200027 17 360 0.0 0.0 0.00 0.03 0.03 45 1012.7